CZ-6A DEB, 54503

Orbit data source: Space-Track

CZ-6A DEB, 54503 is space debris in SSO originally from a launch on Fri, 11 Nov 2022 UTC launched from the Taiyaun Space Center, China (TSC). Debris objects in space refer to the collection of defunct objects orbiting the Earth. Examples of debris include non-operational satellites, rocket bodies, and fragments generated from explosions, collisions, or faulty payload assembly.

Loading next visibility...
Identifier
54503, 2022-151JF
Orbit
SSO
Country
Flag of CNCN / PRC
Related business
Manufacturer
SAST
Mission
Spacecraft
Bus & Motor
Unknown
Mass
Unknown
Launch date (UTC)
2022-11-11 (4 years ago)
Launch vehicle
Unknown
Launch site
Taiyaun Space Center, China (TSC)
Object type
Payload
Rocket body
Debris
Shape & HBR
Unknown shape, 0.1 m
Radar Cross Section
Medium (>0.1 m² and <1 m²)

Expand to show TLE details & history
Last TLE update: 2 days ago

TLE from 2 days ago
0 CZ-6A DEB
1 54503U 22151JF  26171.43709356  .00000506  00000-0  29489-3 0  9998
2 54503  98.7696 158.5279 0049977 334.9632  24.9117 14.12315408185307
Epoch: 2026-06-20T10:29Z
TLE epoch observation values (Epoch: 2026-06-20T10:29:24.883Z)
Latitude
-0.00005°
Longitude
92.5225°
Altitude
821.618 km
Speed
7.459 km/s
True Right ascension
10h 34m 06s
True Declination
0° 00' 00"
Sunlit
Object was in daylight at epoch
Visualization orbit readout
Latitude
Unknown
Longitude
Unknown
Altitude
Unknown
Speed
Unknown
Apparent Right ascension
Unknown
Apparent Declination
Unknown
Sunlit
N/A
Visualization observer readout
Local Sidereal Time
21:39:38
Azimuth
Unknown
Elevation
Unknown
Doppler factor
Unknown
Orbital elements
Apogee altitude
884.748 km
Perigee altitude
812.514 km
Semi-major axis
7,226.768 km
Eccentricity
0.005
Inclination
98.7696°
RAAN
158.5279°
Arg. of periapsis
334.9632°
True anomaly
25.1543°
Mean anomaly
24.9117°
Eccentric anomaly
25.03286°
Mean motion
3.53286 °/min
Orbital period
101.9 mins
BSTAR
0.00029489
Loading maneuver chart data...
Computing Atmospheric mass density...
Loading historical data...
Loading historical data...
Loading historical data...
Loading historical data...
Loading historical data...
Loading historical data...
Loading historical data...

Documentation

Showing up to 5 results
|